This demonstration page uses our WeatherBlox Daily Observations layout. Learn more.

Left ArrowRight Arrow

39.12711, -84.51439

Hourly Observations for September 6, 2021

Temp ( °F °C ) Dew Point ( °F °C ) Humidity (%) Winds ( mph kmh ) Pressure ( in mb ) Visibility ( mi km ) Precip ( " mm )
12:53 am 00:53 Clear with Mist and Fog 59 15 58 14.4 96 96 Calm 29.96 1015 6 10 0.00 0.00
1:05 am 01:05 Clear with Mist and Fog 58 14.4 57 13.9 97 97 Calm 29.98 1015 2 3 0.00 0.00
1:15 am 01:15 Clear with Mist and Fog 58 14.4 58 14.4 100 100 Calm 29.98 1015 3 5 0.00 0.00
1:19 am 01:19 Clear with Mist and Fog 59 15 58 14.4 96 96 Calm 29.98 1015 2 2 0.00 0.00
1:29 am 01:29 Clear with Mist and Fog 59 15 58 14.4 96 96 Calm 29.98 1015 3 5 0.00 0.00
1:35 am 01:35 Clear with Mist and Fog 57 13.9 57 13.9 100 100 Calm 29.98 1015 1 1 0.00 0.00
1:46 am 01:46 Clear with Fog 58 14.4 57 13.9 97 97 Calm 29.98 1015 0 0 0.00 0.00
1:53 am 01:53 Clear with Mist and Fog 58 14.4 57 13.9 97 97 Calm 29.97 1015 1 1 0.00 0.00
2:19 am 02:19 Clear with Mist and Fog 58 14.4 57 13.9 97 97 Calm 29.98 1015 2 3 0.00 0.00
2:22 am 02:22 Mostly Cloudy with Mist and Fog 57 13.9 57 13.9 100 100 Calm 29.98 1015 1 2 0.00 0.00
2:30 am 02:30 Mostly Cloudy with Fog 57 13.9 57 13.9 100 100 Calm 29.98 1015 1 1 0.00 0.00
2:36 am 02:36 Mostly Clear with Mist and Fog 57 13.9 57 13.9 100 100 Calm 29.98 1015 1 2 0.00 0.00
2:39 am 02:39 Mostly Clear with Mist and Fog 57 13.9 57 13.9 100 100 Calm 29.97 1015 3 5 0.00 0.00
2:46 am 02:46 Mostly Clear with Mist and Fog 57 13.9 57 13.9 100 100 Calm 29.97 1015 2 2 0.00 0.00
2:49 am 02:49 Mostly Cloudy with Mist and Fog 57 14 57 14 100 100 Calm 29.97 1015 1 1 0.00 0.00
2:53 am 02:53 Clear with Mist and Fog 56 13.3 56 13.3 100 100 Calm 29.96 1015 1 1 0.00 0.00
3:03 am 03:03 Mostly Cloudy with Fog 56 13.3 56 13.3 100 100 Calm 29.97 1015 0 0 0.00 0.00
3:20 am 03:20 Mostly Cloudy with Fog 56 13.3 55 12.8 97 97 Calm 29.97 1015 0 0 0.00 0.00
3:46 am 03:46 Mostly Cloudy with Mist and Fog 56 13.3 55 12.8 97 97 Calm 29.97 1015 1 1 0.00 0.00
3:48 am 03:48 Mostly Cloudy with Mist and Fog 55 13 55 13 100 100 Calm 29.97 1015 1 2 0.00 0.00
3:53 am 03:53 Mostly Cloudy with Mist and Fog 56 13.3 55 12.8 97 97 Calm 29.96 1015 1 1 0.00 0.00
4:02 am 04:02 Clear with Fog 56 13.3 56 13.3 100 100 Calm 29.97 1015 1 1 0.00 0.00
4:15 am 04:15 Clear with Mist and Fog 55 12.8 55 12.8 100 100 Calm 29.97 1015 1 2 0.00 0.00
4:25 am 04:25 Clear with Fog 56 13.3 55 12.8 97 97 Calm 29.97 1015 1 1 0.00 0.00
4:37 am 04:37 Clear with Mist and Fog 55 12.8 55 12.8 100 100 Calm 29.98 1015 1 2 0.00 0.00
4:41 am 04:41 Mostly Cloudy with Mist and Fog 54 12.2 54 12.2 100 100 Calm 29.97 1015 1 1 0.00 0.00
4:53 am 04:53 Mostly Cloudy with Fog 55 12.8 54 12.2 96 96 Calm 29.96 1015 1 1 0.00 0.00
5:01 am 05:01 Mostly Cloudy with Fog 55 12.8 54 12.2 96 96 Calm 29.97 1015 0 0 0.00 0.00
5:15 am 05:15 Mostly Cloudy with Fog 55 12.8 55 12.8 100 100 Calm 29.97 1015 1 1 0.00 0.00
5:22 am 05:22 Mostly Cloudy with Fog 55 12.8 54 12.2 96 96 Calm 29.97 1015 0 0 0.00 0.00
5:32 am 05:32 Mostly Cloudy with Fog 55 12.8 54 12.2 96 96 Calm 29.97 1015 0 0 0.00 0.00
5:53 am 05:53 Mostly Cloudy with Fog 55 12.8 54 12.2 96 96 Calm 29.97 1015 0 0 0.00 0.00
6:23 am 06:23 Mostly Cloudy with Fog 57 13.9 56 13.3 96 96 Calm 29.99 1016 1 1 0.00 0.00
6:35 am 06:35 Mostly Cloudy with Fog 55 12.8 55 12.8 100 100 Calm 29.99 1016 0 0 0.00 0.00
6:53 am 06:53 Mostly Cloudy with Fog 56 13.3 55 12.8 97 97 Calm 29.99 1016 0 0 0.00 0.00
7:53 am 07:53 Mostly Cloudy with Fog 57 13.9 57 13.9 100 100 Calm 30.00 1016 0 0 0.00 0.00
8:53 am 08:53 Mostly Cloudy with Mist and Fog 60 15.6 60 15.6 100 100 Calm 30.01 1016 1 2 0.00 0.00
9:29 am 09:29 Sunny with Mist and Fog 64 17.8 61 16.1 90 90 Calm 30.01 1016 1 2 0.00 0.00
9:53 am 09:53 Sunny 67 19.4 62 16.7 84 84 Calm 30.01 1016 10 16 0.00 0.00
10:53 am 10:53 Sunny 75 23.9 62 16.7 64 64 SSW 3 6 30.01 1016 10 16 0.00 0.00
11:53 am 11:53 Sunny 80 26.7 56 13.3 44 44 W 6 9 30.00 1016 10 16 0.00 0.00
12:53 pm 12:53 Sunny 81 27.2 56 13.3 42 42 SW 8 13 30.00 1016 10 16 0.00 0.00
1:53 pm 13:53 Sunny 82 27.8 57 13.9 42 42 WSW 10 17 29.99 1016 10 16 0.00 0.00
2:53 pm 14:53 Mostly Sunny 83 28.3 58 14.4 43 43 W 12 19 29.96 1015 10 16 0.00 0.00
3:53 pm 15:53 Mostly Sunny 84 28.9 56 13.3 38 38 W 13 20 29.94 1014 10 16 0.00 0.00
4:53 pm 16:53 Partly Cloudy 83 28.3 56 13.3 40 40 WSW 14 22 29.94 1014 10 16 0.00 0.00
5:53 pm 17:53 Mostly Cloudy 82 27.8 57 13.9 42 42 WSW 10 17 29.93 1014 10 16 0.00 0.00
6:53 pm 18:53 Partly Cloudy 80 26.7 58 14.4 47 47 WSW 9 15 29.93 1013 10 16 0.00 0.00
7:53 pm 19:53 Sunny 71 21.7 60 15.6 68 68 S 8 13 29.93 1014 10 16 0.00 0.00
8:53 pm 20:53 Mostly Cloudy 69 20.6 60 15.6 73 73 S 3 6 29.94 1014 10 16 0.00 0.00
9:53 pm 21:53 Mostly Clear 68 20 61 16.1 78 78 Calm 29.96 1014 10 16 0.00 0.00
10:53 pm 22:53 Clear 66 18.9 61 16.1 84 84 Calm 29.97 1015 10 16 0.00 0.00
11:53 pm 23:53 Mostly Cloudy 66 18.9 63 17.2 90 90 Calm 29.97 1015 10 16 0.00 0.00

Powered by AerisWeather